This demonstration page uses our WeatherBlox Daily Observations layout. Learn more.

Left ArrowRight Arrow

41.86663, -103.66717

Hourly Observations for February 26, 2021

Temp ( °F °C ) Dew Point ( °F °C ) Humidity (%) Winds ( mph kmh ) Pressure ( in mb ) Visibility ( mi km ) Precip ( " mm )
12:53 am 00:53 Clear 31 -0.6 16 -8.9 54 54 N 5 7 29.85 1011 10 16.0934 0 0
1:53 am 01:53 Clear 34 1.1 12 -11.1 40 40 SW 3 6 29.81 1009 10 16.0934 0 0
2:53 am 02:53 Clear 37 2.8 11 -11.7 34 34 SW 14 22 29.75 1008 10 16.0934 0 0
3:53 am 03:53 Clear 37 2.8 8 -13.3 30 30 W 13 20 29.77 1008 10 16.0934 0 0
4:53 am 04:53 Clear 34 1.1 6 -14.4 31 31 W 16 26 29.77 1008 10 16.0934 0 0
5:53 am 05:53 Clear 34 1.1 8 -13.3 34 34 W 20 31 29.8 1009 10 16.0934 0 0
6:53 am 06:53 Sunny 35 1.7 9 -12.8 34 34 W 21 33 29.8 1009 10 16.0934 0 0
7:53 am 07:53 Sunny 36 2.2 9 -12.8 32 32 WNW 16 26 29.81 1010 10 16.0934 0 0
8:53 am 08:53 Sunny 39 3.9 10 -12.2 30 30 W 17 28 29.8 1009 10 16.0934 0 0
9:53 am 09:53 Sunny 40 4.4 13 -10.6 33 33 W 26 43 29.77 1008 10 16.0934 0 0
10:53 am 10:53 Sunny 44 6.7 11 -11.7 26 26 W 30 48 29.75 1007 10 16.0934 0 0
11:53 am 11:53 Sunny 45 7.2 11 -11.7 25 25 W 26 43 29.71 1006 10 16.0934 0 0
12:53 pm 12:53 Mostly Sunny 46 7.8 11 -11.7 24 24 W 24 39 29.69 1006 10 16.0934 0 0
1:53 pm 13:53 Mostly Sunny 43 6.1 7 -13.9 22 22 W 25 41 29.68 1005 10 16.0934 0 0
2:53 pm 14:53 Sunny 45 7.2 8 -13.3 22 22 WNW 25 41 29.68 1005 10 16.0934 0 0
3:53 pm 15:53 Mostly Cloudy 44 6.7 9 -12.8 24 24 W 25 41 29.68 1005 10 16.0934 0 0
4:53 pm 16:53 Sunny 42 5.6 11 -11.7 28 28 WNW 17 28 29.71 1006 10 16.0934 0 0
5:53 pm 17:53 Clear 38 3.3 13 -10.6 36 36 W 13 20 29.74 1007 10 16.0934 0 0
6:53 pm 18:53 Clear 35 1.7 14 -10 42 42 W 13 20 29.77 1008 10 16.0934 0 0
7:53 pm 19:53 Clear 34 1.1 15 -9.4 46 46 W 14 22 29.76 1008 10 16.0934 0 0
8:53 pm 20:53 Clear 35 1.7 15 -9.4 44 44 WNW 12 19 29.76 1008 10 16.0934 0 0
9:53 pm 21:53 Mostly Cloudy 36 2.2 14 -10 40 40 WNW 10 17 29.78 1009 10 16.0934 0 0
10:53 pm 22:53 Cloudy 32 0 16 -8.9 52 52 NW 3 6 29.75 1008 10 16.0934 0 0
11:53 pm 23:53 Cloudy 32 0 17 -8.3 54 54 NW 5 7 29.74 1007 10 16.0934 0 0

Powered by AerisWeather